Knoxville, IA

8:10 PM CDT on March 28, 2017 (GMT -0500)
Knoxville Municipal

Weather History for KOXV - May, 2012

Change the Weather History Date:

Monday, May 7, 2012

  Actual Average Record
Temperature  
Mean Temperature 63 °F -  
Max Temperature 69 °F 71 °F 89 °F (1966)
Min Temperature 57 °F 48 °F 33 °F (1989)
Degree Days  
Heating Degree Days 2    
Growing Degree Days 13 (Base 50)    
Moisture  
Dew Point 49 °F    
Average Humidity 62    
Maximum Humidity 88    
Minimum Humidity 38    
Precipitation  
Precipitation 0.04 in - - ()
Sea Level Pressure  
Sea Level Pressure 29.98 in    
Wind  
Wind Speed 11 mph (NW)    
Max Wind Speed 17 mph    
Max Gust Speed 26 mph    
Visibility 10 miles    
Events Rain    
Averages and records for this station are not official NWS values.
T = Trace of Precipitation, MM = Missing Value Source: NWS Daily Summary

Daily Weather History Graph

Daily Weather History Graph

Search for Another Location

Airport or City:

Trip Planner

Search our weather history database for the weather conditions in past years. The results will help you decide how hot, cold, wet, or windy it might be!

Date:

Astronomy

May. 07, 2012 Rise Set
Actual Time 6:01 AM CDT 8:16 PM CDT
Civil Twilight 5:31 AM CDT 8:47 PM CDT
Nautical Twilight 4:53 AM CDT 9:25 PM CDT
Astronomical Twilight 4:11 AM CDT 10:07 PM CDT
Moon 10:30 PM CDT (5/7) 7:07 AM CDT (5/7)
Length of Visible Light 15h 16m
Length of Day
14h 14m
Waning Gibbous, 96% of the Moon is Illuminated
May 7
Waning Gibbous
May 12
Last Quarter
May 20
New
May 28
First Quarter
Jun 4
Full

Hourly Weather History & Observations

Time (CDT) Temp. Dew Point Humidity Pressure Visibility Wind Dir Wind Speed Gust Speed Precip Events Conditions
12:15 AM 60.8 °F 55.4 °F 82% 29.91 in 10.0 mi East 9.2 mph - N/A   Overcast
12:35 AM 60.8 °F 55.4 °F 82% 29.93 in 10.0 mi East 8.1 mph - N/A   Overcast
12:55 AM 60.8 °F 55.4 °F 82% 29.95 in 10.0 mi WNW 9.2 mph - N/A Rain Light Rain
1:15 AM 60.8 °F 55.4 °F 82% 29.96 in 10.0 mi WNW 11.5 mph - N/A Rain Light Rain
1:35 AM 60.8 °F 55.4 °F 82% 29.94 in 10.0 mi WNW 10.4 mph - 0.01 in Rain Light Rain
1:55 AM 60.8 °F 55.4 °F 82% 29.94 in 10.0 mi WNW 11.5 mph - 0.01 in   Scattered Clouds
2:15 AM 60.8 °F 55.4 °F 82% 29.93 in 10.0 mi NW 15.0 mph 20.7 mph N/A   Scattered Clouds
2:35 AM 59.0 °F 55.4 °F 88% 29.93 in 10.0 mi NW 10.4 mph - N/A   Scattered Clouds
2:55 AM 60.8 °F 55.4 °F 82% 29.93 in 7.0 mi NNW 11.5 mph - N/A   Mostly Cloudy
3:15 AM 60.8 °F 55.4 °F 82% 29.94 in 7.0 mi NNW 11.5 mph 18.4 mph N/A   Overcast
3:35 AM 60.8 °F 55.4 °F 82% 29.96 in 7.0 mi NNW 12.7 mph - N/A   Overcast
3:55 AM 60.8 °F 55.4 °F 82% 29.96 in 7.0 mi North 9.2 mph 18.4 mph N/A   Overcast
4:15 AM 59.0 °F 53.6 °F 82% 29.94 in 7.0 mi North 9.2 mph - N/A   Overcast
4:35 AM 60.8 °F 55.4 °F 82% 29.95 in 7.0 mi NNW 11.5 mph - N/A   Overcast
4:55 AM 60.8 °F 55.4 °F 82% 29.96 in 7.0 mi NNW 9.2 mph - N/A   Overcast
5:15 AM 60.8 °F 55.4 °F 82% 29.96 in 7.0 mi NNW 12.7 mph - N/A   Overcast
5:35 AM 60.8 °F 55.4 °F 82% 29.97 in 7.0 mi NNW 10.4 mph - N/A   Overcast
5:55 AM 60.8 °F 55.4 °F 82% 29.97 in 7.0 mi NNW 10.4 mph - N/A   Overcast
6:15 AM 59.0 °F 53.6 °F 82% 29.98 in 10.0 mi NNW 15.0 mph - N/A   Overcast
6:35 AM 59.0 °F 53.6 °F 82% 29.98 in 10.0 mi NNW 16.1 mph 21.9 mph N/A   Overcast
6:55 AM 57.2 °F 53.6 °F 88% 29.99 in 10.0 mi NNW 15.0 mph 19.6 mph N/A   Overcast
7:15 AM 57.2 °F 53.6 °F 88% 30.00 in 10.0 mi NNW 10.4 mph - N/A   Overcast
7:35 AM 57.2 °F 53.6 °F 88% 30.00 in 10.0 mi NNW 13.8 mph 19.6 mph N/A   Mostly Cloudy
7:55 AM 57.2 °F 53.6 °F 88% 30.01 in 10.0 mi NNW 13.8 mph 17.3 mph N/A   Scattered Clouds
8:15 AM 57.2 °F 53.6 °F 88% 30.01 in 10.0 mi NNW 11.5 mph - N/A   Mostly Cloudy
8:35 AM 60.8 °F 53.6 °F 77% 30.00 in 10.0 mi North 10.4 mph 18.4 mph N/A   Overcast
8:55 AM 62.6 °F 51.8 °F 68% 30.00 in 10.0 mi NNW 15.0 mph 18.4 mph N/A   Scattered Clouds
9:15 AM 62.6 °F 51.8 °F 68% 30.01 in 10.0 mi North 13.8 mph 20.7 mph N/A   Clear
9:35 AM 62.6 °F 50.0 °F 63% 30.01 in 10.0 mi NNW 12.7 mph 18.4 mph N/A   Clear
9:55 AM 62.6 °F 50.0 °F 63% 30.01 in 10.0 mi NNW 12.7 mph - N/A   Clear
10:15 AM 64.4 °F 48.2 °F 56% 30.01 in 10.0 mi NNW 10.4 mph 17.3 mph N/A   Clear
10:35 AM 64.4 °F 46.4 °F 52% 30.01 in 10.0 mi NNW 11.5 mph - N/A   Clear
10:55 AM 64.4 °F 46.4 °F 52% 30.02 in 10.0 mi North 13.8 mph - N/A   Clear
11:15 AM 64.4 °F 48.2 °F 56% 30.02 in 10.0 mi NW 15.0 mph 19.6 mph N/A   Clear
11:35 AM 66.2 °F 46.4 °F 49% 30.02 in 10.0 mi NNW 13.8 mph 19.6 mph N/A   Clear
11:55 AM 66.2 °F 46.4 °F 49% 30.02 in 10.0 mi NW 11.5 mph 18.4 mph N/A   Clear
12:15 PM 66.2 °F 46.4 °F 49% 30.02 in 10.0 mi NNW 12.7 mph 18.4 mph N/A   Clear
12:35 PM 66.2 °F 46.4 °F 49% 30.02 in - NW 11.5 mph 18.4 mph 0.03 in   Clear
12:55 PM 68.0 °F 46.4 °F 46% 30.01 in 10.0 mi NNW 12.7 mph - N/A   Unknown
1:15 PM 68.0 °F 46.4 °F 46% 30.00 in 10.0 mi NW 13.8 mph 23.0 mph N/A   Clear
1:35 PM 68.0 °F 44.6 °F 43% 30.00 in 10.0 mi NNW 13.8 mph 17.3 mph N/A   Clear
1:55 PM 69.8 °F 46.4 °F 43% 30.00 in 10.0 mi NNW 15.0 mph 20.7 mph N/A   Clear
2:15 PM 69.8 °F 44.6 °F 40% 30.00 in 10.0 mi WNW 11.5 mph 18.4 mph N/A   Clear
2:35 PM 69.8 °F 42.8 °F 38% 30.00 in 10.0 mi WNW 17.3 mph 21.9 mph N/A   Clear
2:55 PM 69.8 °F 44.6 °F 40% 29.99 in 10.0 mi WNW 17.3 mph 21.9 mph N/A   Clear
3:15 PM 69.8 °F 44.6 °F 40% 29.98 in 10.0 mi NW 15.0 mph 21.9 mph N/A   Clear
3:35 PM 69.8 °F 46.4 °F 43% 29.98 in 10.0 mi WNW 17.3 mph 24.2 mph N/A   Clear
3:55 PM 69.8 °F 46.4 °F 43% 29.98 in 10.0 mi NW 15.0 mph 19.6 mph N/A   Clear
4:15 PM 69.8 °F 46.4 °F 43% 29.98 in 10.0 mi NW 16.1 mph 21.9 mph N/A   Clear
4:35 PM 69.8 °F 46.4 °F 43% 29.97 in 10.0 mi WNW 15.0 mph 21.9 mph N/A   Clear
4:55 PM 69.8 °F 46.4 °F 43% 29.97 in 10.0 mi NW 11.5 mph - N/A   Clear
5:15 PM 69.8 °F 46.4 °F 43% 29.97 in 10.0 mi NW 11.5 mph 23.0 mph N/A   Clear
5:35 PM 69.8 °F 44.6 °F 40% 29.97 in 10.0 mi NW 16.1 mph 26.5 mph N/A   Clear
5:55 PM 69.8 °F 44.6 °F 40% 29.97 in 10.0 mi NW 16.1 mph - N/A   Clear
6:15 PM 69.8 °F 44.6 °F 40% 29.97 in 10.0 mi NNW 13.8 mph 17.3 mph N/A   Clear
6:35 PM 69.8 °F 44.6 °F 40% 29.96 in 10.0 mi NW 12.7 mph - N/A   Clear
6:55 PM 69.8 °F 44.6 °F 40% 29.96 in 10.0 mi NW 11.5 mph 16.1 mph N/A   Clear
7:15 PM 68.0 °F 42.8 °F 40% 29.96 in 10.0 mi NW 11.5 mph 17.3 mph N/A   Clear
7:35 PM 66.2 °F 44.6 °F 46% 29.96 in 10.0 mi NW 10.4 mph 16.1 mph N/A   Clear
7:55 PM 64.4 °F 44.6 °F 49% 29.96 in 10.0 mi NW 6.9 mph - N/A   Clear
8:15 PM 62.6 °F 44.6 °F 52% 29.96 in 10.0 mi NW 5.8 mph - N/A   Clear
8:35 PM 62.6 °F 44.6 °F 52% 29.95 in 10.0 mi NW 5.8 mph - N/A   Clear
9:15 PM 60.8 °F 44.6 °F 55% 29.97 in 10.0 mi NW 3.5 mph - N/A   Clear
9:35 PM 60.8 °F 44.6 °F 55% 29.99 in 10.0 mi NW 6.9 mph - N/A   Clear
9:55 PM 59.0 °F 44.6 °F 59% 29.99 in 10.0 mi NW 5.8 mph - N/A   Clear
10:15 PM 59.0 °F 44.6 °F 59% 30.00 in 10.0 mi NW 6.9 mph - N/A   Clear
10:35 PM 60.8 °F 44.6 °F 55% 30.00 in 10.0 mi NW 4.6 mph - N/A   Clear
10:55 PM 60.8 °F 44.6 °F 55% 30.00 in 10.0 mi WNW 4.6 mph - N/A   Clear
11:15 PM 60.8 °F 44.6 °F 55% 30.00 in 10.0 mi WNW 4.6 mph - N/A   Scattered Clouds
11:35 PM 60.8 °F 44.6 °F 55% 30.01 in 10.0 mi WNW 4.6 mph - N/A   Scattered Clouds
11:55 PM 60.8 °F 44.6 °F 55% 30.01 in 10.0 mi WNW 4.6 mph - N/A   Mostly Cloudy